Total_Precipitation_Accumulation
1.57 1.64 1.92 2.46 2.79 2.28 1.78 1.31 1.07 1.08 1.06 0.90 0.70 0.67 0.82 1.17 1.55 1.80 1.87 1.70 1.16 0.95 0.93 1.36 1.88 1.75 1.47 1.27 1.23 1.24 1.20 1.24 1.15 1.06 0.93 0.83 0.75 0.67 0.56 0.43 0.40 0.39 0.36 0.35 0.37 0.48 0.47 0.43 0.50
1.08 1.89 2.40 3.01 2.50 1.79 1.59 1.29 1.17 1.08 0.87 0.74 0.55 0.48 0.57 0.61 0.65 0.97 1.76 1.72 1.05 0.85 0.84 1.04 1.55 1.51 1.30 1.15 1.19 1.24 1.19 1.29 1.24 1.03 0.86 0.72 0.71 0.72 0.60 0.53 0.59 0.44 0.36 0.35 0.40 0.50 0.52 0.49 0.52
1.21 2.22 2.98 3.06 1.91 1.58 1.55 1.33 1.12 0.90 0.63 0.62 0.55 0.48 0.61 0.76 0.81 1.14 1.68 1.32 0.95 0.88 0.88 1.21 1.55 1.48 1.33 1.19 1.28 1.36 1.30 1.31 1.17 0.90 0.72 0.68 0.71 0.75 0.75 0.74 0.70 0.46 0.38 0.34 0.38 0.48 0.54 0.54 0.52
1.52 2.49 2.72 2.32 1.77 1.39 1.31 1.22 0.88 0.75 0.59 0.43 0.48 0.51 0.55 0.78 0.81 1.07 1.16 0.97 0.85 0.91 0.89 1.14 1.49 1.46 1.36 1.27 1.33 1.38 1.39 1.36 1.24 0.97 0.79 0.75 0.79 0.78 0.76 0.83 0.70 0.58 0.49 0.41 0.44 0.50 0.55 0.53 0.50
1.90 2.61 2.44 1.99 1.78 1.37 1.14 0.93 0.68 0.69 0.62 0.45 0.42 0.62 0.82 1.03 0.96 0.98 0.96 0.92 0.79 0.85 0.81 0.90 1.25 1.33 1.28 1.27 1.41 1.46 1.47 1.45 1.37 1.13 0.95 0.83 0.78 0.78 0.80 0.87 0.74 0.67 0.59 0.55 0.56 0.57 0.57 0.54 0.52
2.21 2.33 2.37 1.97 1.82 1.51 1.39 0.98 0.75 0.65 0.53 0.45 0.46 0.70 1.04 1.22 1.15 1.10 1.00 1.05 1.04 1.00 0.88 0.82 1.06 1.17 1.18 1.23 1.32 1.36 1.37 1.33 1.29 1.11 0.96 0.89 0.85 0.82 0.89 0.94 0.83 0.75 0.66 0.59 0.60 0.62 0.62 0.58 0.55
2.16 2.23 2.17 1.63 1.74 1.90 1.52 0.96 0.81 0.62 0.59 0.50 0.41 0.75 1.07 1.29 1.21 1.11 1.12 1.16 1.23 1.17 1.07 0.91 0.91 1.02 1.19 1.31 1.31 1.24 1.17 1.17 1.13 1.03 0.97 0.90 0.86 0.81 0.84 0.87 0.80 0.79 0.79 0.73 0.66 0.64 0.64 0.60 0.58
1.68 1.79 1.71 1.58 1.73 1.98 1.33 0.88 0.66 0.57 0.53 0.42 0.39 0.73 1.03 1.05 1.08 1.12 1.30 1.42 1.52 1.37 1.17 0.96 0.86 0.90 0.99 1.08 1.18 1.23 1.22 1.18 1.14 1.01 0.91 0.86 0.80 0.72 0.75 0.71 0.68 0.75 0.85 0.91 0.81 0.72 0.69 0.64 0.59
1.58 1.91 2.04 1.96 1.68 1.50 0.93 0.75 0.63 0.47 0.53 0.54 0.42 0.46 0.59 0.67 0.86 1.04 1.12 1.25 1.35 1.16 1.04 1.04 1.00 1.01 1.05 1.00 1.02 1.19 1.26 1.25 1.10 1.02 0.95 0.85 0.65 0.57 0.63 0.60 0.71 0.81 0.95 1.00 0.98 0.90 0.79 0.69 0.59
1.58 2.01 2.01 1.48 1.14 0.95 0.71 0.67 0.58 0.61 0.67 0.65 0.50 0.50 0.60 0.66 0.85 1.00 0.94 0.96 0.89 0.85 0.83 0.88 0.91 1.00 1.02 0.94 1.17 1.37 1.24 1.09 0.87 0.88 0.80 0.77 0.72 0.70 0.58 0.61 0.79 0.93 0.97 0.96 0.99 1.02 0.89 0.69 0.50
1.28 1.59 1.37 1.18 0.88 0.68 0.64 0.68 0.56 0.59 0.71 0.64 0.54 0.54 0.72 0.81 0.84 0.82 0.77 0.77 0.72 0.75 0.73 0.68 0.72 0.81 0.90 1.04 1.28 1.56 1.60 1.37 1.17 0.98 0.90 0.87 0.76 0.68 0.63 0.62 0.69 0.76 0.79 0.70 0.75 0.80 0.66 0.56 0.53
1.08 0.97 0.95 1.12 0.86 0.70 0.62 0.64 0.61 0.53 0.54 0.50 0.45 0.48 0.67 0.85 0.88 0.76 0.64 0.58 0.56 0.60 0.66 0.53 0.48 0.61 0.71 0.82 0.95 1.24 1.31 1.24 1.10 0.92 0.84 0.90 0.85 0.75 0.71 0.69 0.73 0.74 0.73 0.79 0.81 0.85 0.77 0.61 0.55
1.26 1.05 0.88 0.88 0.89 0.80 0.60 0.62 0.61 0.53 0.43 0.39 0.44 0.56 0.66 0.68 0.69 0.65 0.56 0.51 0.51 0.59 0.65 0.58 0.49 0.49 0.53 0.58 0.64 0.77 0.93 1.04 1.04 0.99 0.83 0.82 0.81 0.76 0.78 0.73 0.78 0.70 0.68 0.76 0.83 0.83 0.84 0.76 0.64
1.10 0.98 0.98 0.94 0.87 0.80 0.72 0.56 0.55 0.63 0.49 0.43 0.52 0.62 0.64 0.60 0.58 0.64 0.59 0.54 0.49 0.53 0.66 0.65 0.54 0.49 0.50 0.48 0.47 0.48 0.61 0.76 0.92 0.94 0.83 0.85 0.86 0.81 0.86 0.83 0.83 0.79 0.73 0.76 0.92 0.86 0.90 0.89 0.82
1.01 1.16 1.11 0.99 0.91 0.85 0.76 0.76 0.62 0.63 0.56 0.52 0.54 0.56 0.58 0.55 0.56 0.64 0.61 0.52 0.47 0.46 0.51 0.58 0.55 0.57 0.60 0.60 0.59 0.49 0.52 0.60 0.73 0.85 0.84 0.90 0.85 0.77 0.82 0.85 0.82 0.81 0.82 0.82 0.88 0.90 0.95 0.86 0.80
1.18 1.34 1.45 1.14 1.02 0.90 0.87 0.99 0.74 0.66 0.58 0.60 0.60 0.56 0.56 0.54 0.52 0.56 0.56 0.53 0.50 0.48 0.51 0.55 0.57 0.63 0.69 0.74 0.76 0.70 0.74 0.76 0.77 0.92 0.89 0.84 0.87 0.84 0.84 0.90 0.91 0.95 0.99 0.96 0.97 1.01 1.02 0.96 0.94
1.32 1.33 1.23 1.05 0.86 0.81 0.82 0.87 0.71 0.66 0.58 0.54 0.53 0.48 0.44 0.39 0.38 0.41 0.44 0.45 0.46 0.45 0.46 0.48 0.57 0.62 0.65 0.73 0.85 0.98 1.03 1.02 0.98 1.01 0.97 0.87 0.85 0.91 1.03 1.07 1.12 1.09 1.11 1.13 1.09 1.11 1.04 1.03 1.03
1.30 1.01 0.85 0.78 0.74 0.74 0.66 0.66 0.61 0.59 0.54 0.44 0.39 0.36 0.35 0.29 0.27 0.28 0.28 0.30 0.34 0.36 0.39 0.43 0.49 0.65 0.81 0.88 0.92 1.08 1.13 1.21 1.30 1.35 1.22 1.09 1.10 1.22 1.37 1.46 1.40 1.39 1.37 1.36 1.32 1.40 1.29 1.11 1.10
0.93 0.85 0.78 0.67 0.63 0.65 0.58 0.53 0.51 0.47 0.44 0.36 0.33 0.28 0.27 0.23 0.17 0.17 0.17 0.20 0.21 0.24 0.30 0.35 0.40 0.55 0.70 0.80 0.92 1.11 1.28 1.46 1.62 1.74 1.63 1.49 1.45 1.61 1.72 1.65 1.73 1.77 1.63 1.62 1.67 1.73 1.68 1.42 1.28
0.80 0.79 0.72 0.61 0.50 0.46 0.41 0.40 0.43 0.39 0.33 0.25 0.24 0.24 0.20 0.15 0.12 0.09 0.08 0.10 0.12 0.15 0.19 0.24 0.31 0.42 0.55 0.71 0.94 1.16 1.46 1.55 1.64 1.78 1.82 1.76 1.69 1.84 1.88 1.96 2.02 2.05 2.04 2.00 1.89 1.97 2.05 1.80 1.57
0.61 0.66 0.62 0.55 0.45 0.38 0.32 0.34 0.37 0.35 0.30 0.23 0.18 0.19 0.16 0.12 0.10 0.06 0.06 0.06 0.09 0.11 0.12 0.18 0.30 0.44 0.66 0.89 1.20 1.50 1.73 1.81 1.86 1.81 1.88 1.97 2.02 2.08 2.10 2.16 2.22 2.22 2.07 2.05 2.14 2.24 2.55 2.36 2.02
0.57 0.45 0.38 0.35 0.38 0.36 0.33 0.46 0.35 0.30 0.31 0.26 0.23 0.24 0.19 0.15 0.11 0.08 0.08 0.08 0.09 0.12 0.16 0.26 0.42 0.63 0.90 1.23 1.58 1.82 2.05 2.15 2.00 1.98 2.01 2.03 1.98 2.01 2.12 2.14 2.13 2.10 2.03 2.09 2.15 2.19 2.56 2.73 2.43
0.38 0.33 0.37 0.34 0.32 0.27 0.20 0.27 0.29 0.29 0.37 0.31 0.24 0.25 0.25 0.21 0.17 0.14 0.15 0.16 0.19 0.25 0.33 0.48 0.72 1.01 1.29 1.52 1.70 1.92 2.05 2.07 2.05 2.02 2.00 1.93 1.91 1.87 1.91 1.93 2.01 2.04 2.08 2.14 2.29 2.39 2.61 2.63 2.63
0.26 0.30 0.39 0.39 0.36 0.31 0.17 0.22 0.32 0.32 0.33 0.29 0.25 0.23 0.20 0.20 0.21 0.22 0.24 0.30 0.37 0.42 0.55 0.73 0.91 1.19 1.36 1.48 1.60 1.79 1.94 1.99 2.01 1.99 1.99 1.98 1.95 1.85 1.79 1.76 1.82 1.94 2.11 2.17 2.25 2.38 2.60 2.71 2.78
0.24 0.36 0.52 0.56 0.52 0.37 0.21 0.32 0.42 0.37 0.30 0.24 0.24 0.24 0.21 0.24 0.28 0.29 0.38 0.53 0.62 0.65 0.73 0.88 0.96 1.12 1.23 1.27 1.37 1.52 1.60 1.66 1.72 1.71 1.67 1.62 1.57 1.56 1.58 1.66 1.75 1.89 2.01 2.09 2.20 2.34 2.38 2.49 2.73
0.19 0.28 0.51 0.58 0.50 0.37 0.31 0.53 0.55 0.39 0.31 0.28 0.26 0.23 0.25 0.35 0.44 0.55 0.68 0.78 0.85 0.86 0.82 0.83 0.96 1.01 0.98 1.01 1.03 1.15 1.25 1.31 1.38 1.39 1.38 1.41 1.44 1.45 1.39 1.43 1.53 1.76 1.97 2.05 2.14 2.15 2.13 2.18 2.36
0.15 0.18 0.24 0.37 0.34 0.34 0.40 0.66 0.64 0.39 0.32 0.29 0.26 0.27 0.34 0.49 0.68 0.90 1.08 1.19 1.27 1.18 0.98 0.84 0.85 0.84 0.81 0.86 0.91 0.96 1.06 1.10 1.13 1.17 1.13 1.23 1.27 1.25 1.19 1.21 1.25 1.38 1.62 1.88 2.04 1.98 1.90 1.87 2.02
0.15 0.21 0.29 0.45 0.55 0.53 0.54 0.72 0.71 0.54 0.44 0.36 0.37 0.48 0.64 0.84 1.11 1.36 1.60 1.73 1.70 1.50 1.23 0.94 0.79 0.75 0.71 0.74 0.79 0.86 0.90 0.91 0.90 0.93 0.89 0.97 1.05 1.05 1.05 1.04 1.09 1.22 1.33 1.54 1.78 1.88 1.83 1.80 1.85
0.17 0.28 0.36 0.48 0.55 0.70 0.80 0.91 0.77 0.71 0.66 0.62 0.70 0.88 1.09 1.35 1.54 1.68 1.83 1.88 1.62 1.44 1.19 0.92 0.77 0.80 0.80 0.79 0.79 0.80 0.78 0.76 0.75 0.74 0.72 0.75 0.81 0.81 0.84 1.00 1.06 1.14 1.22 1.39 1.65 1.83 1.84 1.76 1.77
0.29 0.45 0.60 0.83 0.78 0.74 0.93 1.03 0.79 0.73 0.80 0.84 0.96 1.01 1.11 1.27 1.29 1.37 1.42 1.38 1.34 1.29 1.11 0.95 0.85 0.86 0.89 0.88 0.87 0.80 0.71 0.68 0.68 0.65 0.58 0.60 0.58 0.57 0.69 0.82 0.87 0.91 0.96 1.14 1.44 1.63 1.67 1.64 1.56